Location: Lane
(33.5226°N, 79.8788°W)
Time: 19:14:14
(UTC+00:00)

Transit 2A - Pass Details

Date: 30 September 2022
Orbit: 598 x 959 km, 66.7° (Epoch: 03 December)

Event Time Altitude Azimuth Distance (km) Brightness Sun altitude
Rises 14:21:44 0° 330° (NNW) 3,006 8.6 36.2°
Reaches altitude 10° 14:23:57 10° 328° (NNW) 2,135 8.0 36.6°
Maximum altitude 14:28:46 67° 246° (WSW) 796 6.5 37.4°
Drops below altitude 10° 14:34:05 10° 165° (SSE) 2,357 9.3 38.3°
Sets 14:36:39 0° 162° (SSE) 3,344 10.0 38.7°
